Torna al catalogo

QIANFAN-148

AttivoComunicazioniPO
NORAD 69107·PAYLOAD·🇨🇳 China

Lanciato May 17, 2026 da Wenchang Space Launch Site

Loading…

Prossimi Passaggi (prossime 24 ore)

TLE

AggiornatoSource: Space-Track

Epoca: Sep 14, 2026, 21:29 UTC

1 69107U 26108D   26257.89554290  .00000100  00000-0  13697-3 0  9994
2 69107  89.0185  13.0844 0001954 109.3975 250.7388 13.51023602 16541

Traccia QIANFAN-148 in tempo reale con AllMySat

Download on the App Store